Date String (YYYY-MM-DD hh:mm:ss) UTC,Instrument flags,absolute air pressure of the measurement (hPa),sample flow rate (lpm),inlet stack bypass flow (lpm),air temperature of the measurement (°C),ambient temperature measured by the external sensor (°C),aerosol sample conditioner tube jacket temperature (°C),OPC LED temperature (°C),internal box temperature (°C),relative humidity of the measurement (%),span deviation,mass concentration of particles derived from Lorenz-Mie calculation of OPC scattering (μg/m³),mass concentration of particles derived from Lorenz-Mie calculation of OPC scattering (μg/m³),mass concentration of particles derived from Lorenz-Mie calculation of OPC scattering (μg/m³)
DateTimeUTC,F1_M11,P_M11,Q1_M11,Q2_M11,T1_M11,T2_M11,T3_M11,T4_M11,T5_M11,U1_M11,ZSPAN_M11,X0_M11,X2_M11,X1_M11
2024-04-01 08:00:00,SystemResetWarning,0818.7,5.00,000.00,021.6,020.6,000.0,030.2,023.4,29.5,0000.0,0007.42,0004.57,0004.29
2024-04-01 08:01:00,SystemResetWarning,0818.7,5.00,000.00,021.6,020.6,000.0,030.2,023.4,29.5,0000.0,0007.31,0004.57,0004.30
2024-04-01 08:02:00,SystemResetWarning,0818.7,5.00,000.00,021.6,020.6,000.0,030.2,023.3,29.7,0000.0,0006.95,0004.53,0004.28
2024-04-01 08:03:00,SystemResetWarning,0818.7,4.99,000.00,021.5,020.6,000.0,030.2,023.3,29.8,0000.0,0006.91,0004.50,0004.24
2024-04-01 08:04:00,SystemResetWarning,0818.7,5.00,000.00,021.5,020.6,000.0,030.2,023.3,29.8,0000.0,0006.91,0004.46,0004.19
2024-04-01 08:05:00,SystemResetWarning,0818.7,5.01,000.00,021.5,020.6,000.0,030.2,023.3,29.8,0000.0,0006.90,0004.44,0004.16
2024-04-01 08:06:00,SystemResetWarning,0818.8,5.01,000.00,021.5,020.5,000.0,030.2,023.3,29.8,0000.0,0006.93,0004.43,0004.15
2024-04-01 08:07:00,SystemResetWarning,0818.8,5.00,000.00,021.5,020.5,000.0,030.2,023.3,29.8,0000.0,0006.80,0004.40,0004.13
2024-04-01 08:08:00,SystemResetWarning,0819.0,4.99,000.00,021.5,020.5,000.0,030.2,023.3,29.9,0000.0,0006.81,0004.40,0004.13
2024-04-01 08:09:00,SystemResetWarning,0819.0,5.00,000.00,021.5,020.5,000.0,030.2,023.3,29.9,0000.0,0006.85,0004.41,0004.13
2024-04-01 08:10:00,SystemResetWarning,0819.4,5.01,000.00,021.5,020.5,000.0,030.2,023.3,29.9,0000.0,0006.92,0004.42,0004.12
2024-04-01 08:11:00,SystemResetWarning,0819.2,5.01,000.00,021.5,020.5,000.0,030.2,023.3,30.0,0000.0,0007.08,0004.43,0004.12
2024-04-01 08:12:00,SystemResetWarning,0819.0,5.00,000.00,021.5,020.5,000.0,030.1,023.3,30.0,0000.0,0007.28,0004.47,0004.12
2024-04-01 08:13:00,SystemResetWarning,0819.0,4.99,000.00,021.5,020.5,000.0,030.1,023.3,30.0,0000.0,0007.35,0004.48,0004.13
2024-04-01 08:14:00,SystemResetWarning,0819.0,4.99,000.00,021.4,020.5,000.0,030.1,023.2,30.1,0000.0,0007.35,0004.49,0004.15
2024-04-01 08:15:00,SystemResetWarning,0819.0,5.01,000.00,021.4,020.5,000.0,030.1,023.2,30.1,0000.0,0007.32,0004.49,0004.15
2024-04-01 08:16:00,SystemResetWarning,0819.1,5.01,000.00,021.4,020.5,000.0,030.1,023.2,30.1,0002.2,0007.34,0004.50,0004.17
2024-04-01 08:17:00,SystemResetWarning,0819.1,5.00,000.00,021.4,020.5,000.0,030.1,023.2,30.1,0001.4,0007.34,0004.51,0004.17
2024-04-01 08:18:00,SystemResetWarning,0819.1,4.99,000.00,021.4,020.4,000.0,030.1,023.2,30.1,0000.0,0007.32,0004.50,0004.18
2024-04-01 08:19:00,SystemResetWarning,0819.1,5.00,000.00,021.4,020.4,000.0,030.1,023.2,30.0,0000.0,0007.34,0004.52,0004.18
2024-04-01 08:20:00,SystemResetWarning,0819.1,5.01,000.00,021.4,020.4,000.0,030.1,023.2,30.2,0000.0,0007.31,0004.53,0004.19
2024-04-01 08:21:00,SystemResetWarning,0819.1,5.00,000.00,021.4,020.4,000.0,030.1,023.2,30.2,0000.0,0007.21,0004.52,0004.20
2024-04-01 08:22:00,SystemResetWarning,0819.1,4.99,000.00,021.4,020.4,000.0,030.0,023.2,30.2,0000.0,0007.32,0004.52,0004.21
2024-04-01 08:23:00,SystemResetWarning,0819.1,4.99,000.00,021.4,020.4,000.0,030.0,023.2,30.1,0000.0,0008.08,0004.49,0004.21
2024-04-01 08:24:00,SystemResetWarning,0819.4,4.99,000.00,021.4,020.4,000.0,030.0,023.2,30.1,0000.0,0008.07,0004.48,0004.20
2024-04-01 08:25:00,SystemResetWarning,0819.2,5.00,000.00,021.4,020.4,000.0,030.0,023.2,30.2,0000.0,0007.97,0004.45,0004.18
2024-04-01 08:26:00,SystemResetWarning,0819.2,5.00,000.00,021.3,020.3,000.0,030.0,023.1,30.2,0000.0,0007.96,0004.43,0004.17
2024-04-01 08:27:00,SystemResetWarning,0819.1,4.99,000.00,021.3,020.3,000.0,030.0,023.1,30.3,0000.0,0007.97,0004.44,0004.16
2024-04-01 08:28:00,SystemResetWarning,0819.2,5.01,000.00,021.3,020.3,000.0,030.0,023.1,30.3,0000.0,0007.95,0004.43,0004.16
2024-04-01 08:29:00,SystemResetWarning,0819.1,5.01,000.00,021.3,020.3,000.0,030.0,023.1,30.3,0000.0,0007.95,0004.43,0004.17
2024-04-01 08:30:00,SystemResetWarning,0819.1,4.99,000.00,021.3,020.3,000.0,030.0,023.1,30.3,0000.2,0007.90,0004.41,0004.17
2024-04-01 08:31:00,SystemResetWarning,0819.1,4.99,000.00,021.3,020.3,000.0,030.0,023.1,30.2,0000.6,0007.86,0004.39,0004.17
2024-04-01 08:32:00,SystemResetWarning,0819.0,5.00,000.00,021.3,020.3,000.0,030.0,023.1,30.2,0000.9,0007.90,0004.40,0004.17
2024-04-01 08:33:00,SystemResetWarning,0819.0,4.99,000.00,021.3,020.3,000.0,029.9,023.1,30.2,0000.4,0007.77,0004.41,0004.19
2024-04-01 08:34:00,SystemResetWarning,0819.1,5.01,000.00,021.3,020.3,000.0,029.9,023.1,30.3,-000.1,0006.71,0004.44,0004.21
2024-04-01 08:35:00,SystemResetWarning,0819.1,5.01,000.00,021.3,020.3,000.0,029.9,023.1,30.1,-000.6,0006.75,0004.48,0004.25
2024-04-01 08:36:00,SystemResetWarning,0819.1,4.99,000.00,021.2,020.2,000.0,029.9,023.1,30.0,-000.2,0006.90,0004.55,0004.33
2024-04-01 08:37:00,SystemResetWarning,0819.3,4.99,000.00,021.2,020.3,000.0,029.9,023.1,29.9,-000.2,0007.45,0004.64,0004.41
2024-04-01 08:38:00,SystemResetWarning,0819.3,5.00,000.00,021.2,020.3,000.0,029.9,023.0,29.8,-000.1,0007.79,0004.73,0004.50
2024-04-01 08:39:00,SystemResetWarning,0819.1,5.00,000.00,021.2,020.3,000.0,029.9,023.0,29.8,-000.2,0008.73,0004.84,0004.58
2024-04-01 08:40:00,SystemResetWarning,0819.2,5.01,000.00,021.2,020.2,000.0,029.9,023.0,29.8,0000.0,0008.90,0004.95,0004.66
2024-04-01 08:41:00,SystemResetWarning,0819.1,5.01,000.00,021.2,020.2,000.0,029.9,023.0,29.9,0000.1,0009.07,0005.07,0004.77
2024-04-01 08:42:00,SystemResetWarning,0819.1,5.00,000.00,021.2,020.2,000.0,029.9,023.0,29.8,-000.3,0009.61,0005.20,0004.88
2024-04-01 08:43:00,SystemResetWarning,0819.1,5.00,000.00,021.2,020.2,000.0,029.9,023.0,29.9,-000.3,0009.76,0005.32,0004.98
2024-04-01 08:44:00,SystemResetWarning,0819.2,4.99,000.00,021.2,020.2,000.0,029.9,023.0,29.8,-000.2,0009.90,0005.44,0005.10
2024-04-01 08:45:00,SystemResetWarning,0819.1,5.01,000.00,021.2,020.2,000.0,029.8,023.0,29.8,0000.2,0009.98,0005.53,0005.22
2024-04-01 08:46:00,SystemResetWarning,0819.0,5.00,000.00,021.2,020.2,000.0,029.8,023.0,30.1,0000.7,0010.11,0005.65,0005.33
2024-04-01 08:47:00,SystemResetWarning,0819.0,5.01,000.00,021.2,020.2,000.0,029.8,023.0,30.2,0000.5,0010.35,0005.75,0005.40
2024-04-01 08:48:00,SystemResetWarning,0819.3,4.99,000.00,021.2,020.2,000.0,029.8,023.0,30.1,0000.4,0010.34,0005.85,0005.46
2024-04-01 08:49:00,SystemResetWarning,0819.4,4.99,000.00,021.2,020.2,000.0,029.8,023.0,30.2,0000.2,0010.25,0005.92,0005.53
2024-04-01 08:50:00,SystemResetWarning,0819.3,5.00,000.00,021.2,020.2,000.0,029.8,023.0,30.2,0000.3,0009.51,0005.97,0005.59
2024-04-01 08:51:00,SystemResetWarning,0819.0,5.02,000.00,021.2,020.2,000.0,029.8,023.0,30.1,0000.6,0009.61,0006.03,0005.66
2024-04-01 08:52:00,SystemResetWarning,0819.0,5.00,000.00,021.2,020.2,000.0,029.8,023.0,30.1,0000.8,0009.69,0006.11,0005.74
2024-04-01 08:53:00,SystemResetWarning,0819.0,5.00,000.00,021.2,020.2,000.0,029.8,023.0,30.1,0001.1,0009.46,0006.19,0005.82
2024-04-01 08:54:00,SystemResetWarning,0819.0,4.99,000.00,021.2,020.2,000.0,029.8,023.0,30.1,0001.5,0009.53,0006.26,0005.88
2024-04-01 08:55:00,SystemResetWarning,0819.0,4.99,000.00,021.2,020.2,000.0,029.8,023.0,30.1,0001.5,0009.63,0006.34,0005.93
2024-04-01 08:56:00,SystemResetWarning,0819.0,5.02,000.00,021.1,020.2,000.0,029.8,023.0,30.2,0001.4,0009.74,0006.41,0005.97
2024-04-01 08:57:00,SystemResetWarning,0819.0,5.00,000.00,021.1,020.2,000.0,029.8,023.0,30.2,0001.6,0009.78,0006.46,0006.04
2024-04-01 08:58:00,SystemResetWarning,0819.0,4.99,000.00,021.1,020.2,000.0,029.8,023.0,30.2,0001.8,0009.71,0006.51,0006.10
2024-04-01 08:59:00,SystemResetWarning,0819.0,4.99,000.00,021.1,020.3,000.0,029.8,023.0,30.2,0001.8,0009.68,0006.58,0006.19
